Satellite-Ground Cal/Val Site Overpasses Predictions

Prediction of Satellite NPP Overpassing Cal/Val Site: Antarctic Dome C

Ground Cal/Val Site Location: Latitude: -75.10, Longitude: 123.35; Satellite-Ground Site NADIR distance within 100 km.

Table of predicted overpasses for the next 14.0 days since TLE Epoch: 8/11/2017
Interval Starting Time Ending Time Minimum Distance Time Minimum Distance (km)
1 08/12/2017 07:19:00 08/12/2017 07:19:19 08/12/2017 07:19:10 76.83
2 08/14/2017 15:01:17 08/14/2017 15:01:40 08/14/2017 15:01:28 57.76
3 08/15/2017 14:42:27 08/15/2017 14:42:52 08/15/2017 14:42:39 51.33
4 08/16/2017 07:44:08 08/16/2017 07:44:29 08/16/2017 07:44:19 68.81
5 08/17/2017 07:25:16 08/17/2017 07:25:43 08/17/2017 07:25:30 39.08
6 08/19/2017 15:07:45 08/19/2017 15:07:53 08/19/2017 15:07:49 95.72
7 08/20/2017 14:48:46 08/20/2017 14:49:15 08/20/2017 14:49:00 15.38
8 08/22/2017 07:31:36 08/22/2017 07:32:06 08/22/2017 07:31:51 2.14


NCC Satellite Cal/Val Overpasses Prediction Service
